Seattle, WA

1:36 AM PST on February 27, 2017 (GMT -0800)
Boeing Field-King County International

Weather History for KBFI - October, 2014

Change the Weather History Date:

Sunday, October 5, 2014

  Actual Average Record
Temperature  
Mean Temperature 64 °F -  
Max Temperature 73 °F 64 °F 82 °F (1980)
Min Temperature 55 °F 47 °F 38 °F (1974)
Degree Days  
Heating Degree Days 1    
Growing Degree Days 14 (Base 50)    
Moisture  
Dew Point 54 °F    
Average Humidity 74    
Maximum Humidity 88    
Minimum Humidity 57    
Precipitation  
Precipitation 0.00 in - - ()
Sea Level Pressure  
Sea Level Pressure 30.12 in    
Wind  
Wind Speed 1 mph (NW)    
Max Wind Speed 7 mph    
Max Gust Speed -    
Visibility 10 miles    
Events      
Averages and records for this station are not official NWS values.
T = Trace of Precipitation, MM = Missing Value Source: NWS Daily Summary

Daily Weather History Graph

Daily Weather History Graph

Search for Another Location

Airport or City:

Trip Planner

Search our weather history database for the weather conditions in past years. The results will help you decide how hot, cold, wet, or windy it might be!

Date:

Astronomy

Oct. 05, 2014 Rise Set
Actual Time 7:13 AM PDT 6:40 PM PDT
Civil Twilight 6:43 AM PDT 7:11 PM PDT
Nautical Twilight 6:07 AM PDT 7:46 PM PDT
Astronomical Twilight 5:31 AM PDT 8:22 PM PDT
Moon 5:11 PM PDT (10/5) 3:44 AM PDT (10/5)
Length of Visible Light 12h 27m
Length of Day
11h 26m
Waxing Gibbous, 90% of the Moon is Illuminated
Oct 5
Waxing Gibbous
Oct 8
Full
Oct 15
Last Quarter
Oct 23
New
Oct 30
First Quarter

Hourly Weather History & Observations

Time (PDT) Temp. Dew Point Humidity Pressure Visibility Wind Dir Wind Speed Gust Speed Precip Events Conditions
12:53 AM 60.1 °F 52.0 °F 75% 30.15 in 10.0 mi Calm Calm - N/A   Clear
1:53 AM 59.0 °F 52.0 °F 78% 30.15 in 10.0 mi Calm Calm - N/A   Clear
2:53 AM 57.9 °F 52.0 °F 81% 30.14 in 10.0 mi Calm Calm - N/A   Clear
3:53 AM 57.0 °F 51.1 °F 81% 30.14 in 10.0 mi Calm Calm - N/A   Clear
4:53 AM 55.9 °F 51.1 °F 84% 30.14 in 10.0 mi Calm Calm - N/A   Clear
5:53 AM 55.9 °F 51.1 °F 84% 30.15 in 10.0 mi Calm Calm - N/A   Scattered Clouds
5:59 AM 55.4 °F 51.8 °F 88% 30.15 in 10.0 mi Calm Calm - N/A   Overcast
6:01 AM 55.4 °F 51.8 °F 88% 30.15 in 10.0 mi Calm Calm - N/A   Overcast
6:53 AM 55.9 °F 51.1 °F 84% 30.15 in 10.0 mi Calm Calm - N/A   Overcast
7:53 AM 55.9 °F 52.0 °F 87% 30.15 in 10.0 mi Calm Calm - N/A   Overcast
8:18 AM 57.2 °F 51.8 °F 82% 30.15 in 10.0 mi Calm Calm - N/A   Overcast
8:53 AM 57.9 °F 53.1 °F 84% 30.15 in 10.0 mi Calm Calm - N/A   Overcast
9:53 AM 62.1 °F 55.0 °F 78% 30.15 in 9.0 mi Calm Calm - N/A   Scattered Clouds
10:53 AM 64.0 °F 55.0 °F 73% 30.15 in 10.0 mi West 3.5 mph - N/A   Scattered Clouds
11:53 AM 66.0 °F 55.0 °F 68% 30.14 in 10.0 mi NNW 5.8 mph - N/A   Scattered Clouds
12:53 PM 69.1 °F 55.9 °F 63% 30.13 in 10.0 mi Variable 4.6 mph - N/A   Clear
1:53 PM 71.1 °F 57.0 °F 61% 30.12 in 10.0 mi Variable 3.5 mph - N/A   Clear
2:53 PM 73.0 °F 57.0 °F 57% 30.12 in 10.0 mi NNW 6.9 mph - N/A   Partly Cloudy
3:53 PM 73.0 °F 57.0 °F 57% 30.10 in 10.0 mi WNW 6.9 mph - N/A   Clear
4:53 PM 73.0 °F 57.0 °F 57% 30.09 in 10.0 mi Variable 4.6 mph - N/A   Clear
5:53 PM 72.0 °F 57.0 °F 59% 30.07 in 10.0 mi NW 4.6 mph - N/A   Clear
6:53 PM 70.0 °F 57.0 °F 63% 30.07 in 10.0 mi NW 6.9 mph - N/A   Scattered Clouds
7:53 PM 68.0 °F 57.0 °F 68% 30.08 in 10.0 mi Calm Calm - N/A   Clear
8:53 PM 66.0 °F 55.9 °F 70% 30.09 in 10.0 mi Calm Calm - N/A   Clear
9:53 PM 64.9 °F 55.9 °F 73% 30.09 in 10.0 mi Calm Calm - N/A   Clear
10:53 PM 64.0 °F 55.9 °F 75% 30.09 in 10.0 mi Calm Calm - N/A   Clear
11:53 PM 63.0 °F 55.9 °F 78% 30.07 in 10.0 mi Calm Calm - N/A   Clear